Wind_Speed
21 22 21 20 19 19 18 17 16 18 20 21 22 22 21 20 19 19 19 19 18 18 18 18 17 18 18 19 19 20 20 19 19 20 21 21 21 21 20 20 20 19 18
24 23 22 21 20 20 19 18 17 17 18 20 21 22 21 20 19 19 19 20 20 19 19 20 20 21 21 22 23 23 23 22 22 22 23 24 24 24 23 23 22 21 21
23 22 20 19 18 18 17 17 16 16 17 19 20 20 20 20 19 19 19 20 21 21 22 23 23 24 24 25 26 26 27 26 25 25 26 27 27 26 25 25 25 24 23
18 17 16 15 15 14 14 15 15 15 17 19 20 20 21 21 21 21 21 22 23 24 25 25 26 27 28 29 29 30 30 30 29 29 29 29 30 29 28 28 28 27 25
14 14 13 12 12 11 12 13 14 14 15 17 19 20 20 21 22 24 24 25 26 27 28 28 29 30 31 33 34 35 35 34 34 34 33 33 34 34 32 32 32 31 29
13 13 13 12 11 10 11 12 13 13 13 14 16 18 19 21 23 25 27 28 29 30 31 32 32 34 36 37 38 39 39 39 38 39 39 39 39 39 37 35 34 35 33
14 14 13 13 11 10 10 11 11 12 12 13 14 16 18 20 23 25 26 28 28 30 32 33 34 36 37 37 38 37 36 34 33 35 36 38 40 41 41 39 37 36 35
15 14 12 11 11 10 10 11 11 13 15 16 17 17 18 20 21 21 21 22 24 25 27 29 30 31 31 31 31 32 31 28 25 26 27 27 28 30 33 37 39 40 39
16 14 11 9 10 10 11 12 14 15 17 19 19 19 19 19 20 20 21 21 22 23 24 24 25 25 26 26 26 26 26 25 24 24 25 26 27 28 28 29 31 32 36
15 13 10 10 11 11 12 14 15 17 19 21 22 22 23 23 22 22 22 22 22 22 22 23 24 24 24 24 25 26 26 26 26 26 26 27 28 28 28 27 28 29 29
16 13 12 13 13 13 13 15 17 20 22 24 25 26 27 27 26 26 25 24 23 23 23 24 25 25 25 26 26 27 28 28 28 28 29 29 30 30 29 29 28 28 29
14 14 15 14 15 15 15 17 19 22 24 26 26 26 27 28 28 28 27 26 26 25 26 26 27 28 29 29 28 29 29 29 29 30 31 32 32 33 33 33 31 30 30
14 16 17 17 16 16 17 19 21 23 25 25 25 25 25 26 27 27 27 27 27 26 27 28 29 30 31 31 31 31 31 32 33 33 34 36 37 38 38 38 38 37 35
17 18 21 22 18 16 16 17 19 21 23 25 25 26 26 27 27 28 27 26 27 28 30 30 31 32 33 33 34 34 34 36 37 38 39 40 41 42 43 43 43 43 42
23 24 23 23 19 17 17 17 18 21 24 27 29 29 29 29 29 29 29 28 29 31 33 35 36 36 36 37 38 38 39 40 42 43 43 43 44 45 46 46 46 46 46
28 27 29 27 26 26 23 21 21 24 27 30 32 31 31 30 30 31 32 32 33 35 37 39 40 41 42 43 43 44 45 46 46 47 47 47 47 47 47 47 48 48 48
30 30 32 33 33 33 30 26 28 30 30 31 32 32 33 34 35 37 37 38 40 42 43 45 46 46 47 48 48 49 50 51 51 51 51 51 51 51 51 51 51 51 51
32 34 35 34 35 35 32 32 33 33 33 33 33 34 35 36 38 39 40 42 44 45 47 49 50 50 49 50 52 53 54 54 55 56 56 57 57 58 59 59 58 57 56
34 36 37 37 37 37 36 35 34 34 34 34 35 36 37 38 39 40 42 43 44 46 48 49 49 50 51 52 54 55 57 57 58 59 60 63 64 65 65 65 65 65 63
36 37 38 39 39 38 37 37 36 36 35 35 35 35 36 38 40 41 43 45 47 49 50 51 51 54 57 58 60 61 62 63 64 65 67 69 71 72 73 73 72 72 71
35 37 38 39 39 40 40 39 39 38 38 37 38 38 39 40 42 45 47 49 51 53 54 55 58 61 64 67 69 70 69 69 70 72 74 75 77 79 79 80 79 78 77
35 37 38 39 40 40 41 41 41 41 41 41 41 42 43 45 47 49 51 54 55 58 60 62 64 67 71 74 76 77 76 73 72 74 76 77 78 80 81 81 81 80 78
34 37 38 38 39 40 41 42 43 43 44 44 46 47 49 51 52 54 56 57 59 62 65 67 69 72 74 75 77 78 77 74 71 69 70 71 73 74 75 75 75 74 73
34 36 36 37 39 41 43 44 45 46 47 48 50 52 54 55 57 59 60 61 64 65 66 67 67 68 68 68 69 69 68 65 61 57 58 60 61 61 61 61 61 60 60
35 35 36 38 41 44 46 47 48 50 51 52 54 56 57 59 61 62 63 65 64 64 62 61 61 60 59 58 56 55 55 54 53 52 52 51 50 48 47 46 46 46 46
37 37 38 41 44 47 49 50 52 53 54 55 57 59 60 61 62 63 64 63 62 58 56 55 55 54 53 53 52 51 51 51 51 50 49 47 45 41 40 39 39 39 39
Wind_Direction
303 298 294 288 285 286 288 286 280 277 278 277 274 271 270 271 274 277 278 278 276 272 268 264 263 264 265 265 265 265 264 262 261 262 264 265 265 263 262 261 258 255 254
302 299 296 289 283 281 282 280 276 273 274 275 274 272 271 271 273 278 283 282 280 276 272 268 265 265 266 266 266 265 265 263 260 260 261 262 263 261 260 259 258 256 253
301 301 299 293 285 280 277 273 272 273 274 273 273 272 272 273 275 277 279 278 277 276 274 271 267 265 264 265 265 266 267 266 264 261 261 263 262 259 257 257 257 254 251
308 309 306 299 291 284 276 271 273 274 273 271 269 268 269 271 274 275 275 273 272 271 270 269 268 267 266 265 265 266 267 267 267 264 262 262 263 260 257 255 253 250 246
329 332 324 311 300 290 279 275 276 277 273 269 267 266 268 270 272 274 275 274 272 270 269 268 266 266 266 266 266 267 266 267 267 265 262 260 261 261 259 256 250 245 240
344 345 339 327 313 297 284 279 278 280 279 276 273 271 271 272 272 274 274 274 274 274 272 270 269 268 268 268 269 269 268 268 267 265 263 260 259 260 259 255 248 243 236
345 345 343 337 324 309 297 289 288 290 292 289 286 285 283 282 283 281 279 277 277 277 275 272 272 272 274 275 274 274 276 275 274 269 268 265 262 259 258 254 250 245 238
339 335 332 333 330 321 315 312 308 307 307 305 302 299 296 295 294 294 289 286 284 283 282 279 278 278 280 281 281 282 283 285 282 282 280 279 277 272 269 264 258 253 245
332 328 321 319 319 321 324 322 319 318 317 317 316 315 312 310 308 304 299 295 291 287 284 283 282 282 282 282 284 286 286 286 284 283 282 283 284 283 280 277 272 268 259
328 327 328 320 311 313 315 315 317 318 318 318 318 317 316 315 313 309 304 298 294 291 287 284 282 281 281 282 284 285 286 286 284 281 279 279 279 279 279 280 279 276 274
326 325 325 318 312 307 307 310 312 312 312 312 311 312 312 312 312 310 307 301 296 291 287 284 282 282 281 282 282 283 283 284 283 282 281 280 280 280 280 280 278 276 275
322 317 318 311 304 298 301 304 304 304 304 305 305 307 309 309 310 309 306 302 296 292 288 285 283 281 280 279 279 280 281 282 282 283 283 284 283 283 282 281 278 274 271
319 318 318 313 306 300 298 299 301 303 303 303 303 304 306 307 307 307 306 304 302 298 295 290 286 282 280 279 278 279 281 282 282 282 282 282 281 280 279 278 275 272 269
322 320 323 321 311 304 305 305 307 307 306 304 303 304 306 306 306 307 305 303 303 302 301 297 291 286 282 280 280 280 279 279 279 279 279 279 278 277 275 274 272 271 268
325 324 319 324 320 316 316 315 313 313 313 311 311 309 310 309 309 309 307 303 302 302 301 298 294 288 283 280 279 279 280 280 280 279 279 277 276 274 272 270 269 268 267
329 325 327 329 331 330 324 317 320 322 319 316 314 312 311 309 309 308 304 300 297 296 296 294 291 287 282 279 279 281 284 284 285 283 282 280 277 273 270 269 268 268 268
328 328 329 332 334 334 330 323 322 325 324 319 315 312 311 309 308 306 304 302 301 299 298 296 292 288 285 281 280 282 284 286 287 285 283 281 278 275 272 270 269 269 269
324 325 325 327 329 330 327 321 321 322 321 318 314 312 310 309 308 306 303 303 301 299 299 298 294 290 286 284 282 282 285 286 285 284 282 281 280 278 277 276 274 273 271
320 320 321 321 322 322 321 320 319 319 318 316 313 311 310 309 307 306 303 302 300 297 297 295 291 287 286 287 287 287 287 287 286 284 283 282 281 280 278 276 276 275 273
316 318 319 319 319 319 319 319 318 317 315 313 311 310 309 308 307 305 302 301 299 297 295 292 287 286 286 287 288 287 287 287 285 284 283 282 282 280 279 277 275 274 273
315 318 319 318 318 318 318 317 316 315 314 313 312 311 309 307 305 303 301 300 297 296 294 292 289 288 287 287 287 287 286 286 286 285 285 284 282 280 278 276 274 273 272
313 316 316 316 316 316 316 316 315 314 313 312 311 310 308 306 304 302 300 299 298 296 296 294 292 290 289 288 288 287 286 285 285 286 285 284 283 281 278 275 273 272 272
309 313 314 314 314 314 315 315 314 313 312 311 310 309 307 305 304 302 301 300 298 297 296 295 294 293 291 290 289 289 288 287 286 285 285 285 283 281 278 274 272 270 270
306 311 312 313 313 314 315 315 314 312 311 309 308 307 306 305 304 304 303 302 301 300 299 299 298 297 296 294 292 290 290 289 288 288 288 288 287 284 279 275 272 270 269
301 307 312 314 315 316 316 315 314 312 310 308 307 306 305 305 304 304 303 303 302 301 301 302 302 302 301 299 298 295 293 292 291 292 292 292 290 288 283 278 273 269 267
296 302 307 311 314 315 315 314 313 312 310 309 308 307 306 305 304 303 302 301 301 300 301 303 304 305 305 304 302 299 296 294 293 293 292 293 292 289 285 279 273 269 267
Height
5904 5903 5903 5902 5902 5902 5902 5902 5902 5901 5900 5900 5899 5899 5900 5900 5900 5900 5900 5900 5900 5900 5900 5899 5899 5898 5898 5897 5896 5895 5895 5895 5895 5894 5893 5892 5891 5891 5890 5890 5890 5890 5890
5901 5900 5900 5899 5899 5899 5899 5899 5898 5898 5898 5897 5897 5897 5897 5897 5897 5897 5897 5897 5897 5897 5897 5896 5896 5895 5894 5893 5892 5891 5891 5891 5891 5890 5889 5888 5888 5887 5887 5886 5886 5887 5886
5898 5896 5896 5895 5895 5895 5895 5895 5896 5895 5895 5895 5895 5895 5895 5894 5894 5894 5894 5893 5893 5893 5893 5892 5892 5891 5890 5889 5888 5887 5887 5887 5887 5886 5885 5884 5883 5883 5883 5883 5882 5882 5882
5894 5893 5892 5892 5892 5892 5892 5893 5893 5893 5892 5892 5892 5892 5892 5892 5891 5891 5890 5890 5890 5889 5889 5888 5888 5887 5886 5885 5883 5882 5882 5882 5882 5881 5880 5879 5878 5878 5879 5878 5878 5877 5877
5892 5891 5891 5890 5890 5890 5890 5890 5890 5890 5889 5889 5888 5888 5889 5888 5888 5888 5887 5887 5886 5886 5885 5884 5883 5882 5881 5880 5879 5877 5877 5877 5877 5876 5876 5874 5873 5872 5873 5873 5872 5871 5871
5890 5890 5889 5889 5888 5888 5888 5888 5887 5887 5886 5886 5885 5885 5885 5884 5884 5884 5883 5882 5882 5881 5880 5880 5879 5878 5877 5875 5874 5872 5871 5871 5871 5870 5869 5868 5867 5866 5866 5867 5866 5865 5865
5890 5889 5888 5888 5887 5887 5886 5886 5885 5885 5884 5884 5883 5882 5882 5881 5880 5879 5878 5877 5876 5875 5874 5874 5873 5872 5871 5870 5868 5866 5865 5865 5864 5863 5862 5861 5861 5860 5859 5860 5860 5859 5859
5889 5888 5887 5886 5886 5886 5885 5884 5883 5882 5882 5881 5881 5880 5879 5878 5876 5875 5873 5872 5870 5869 5868 5867 5867 5866 5865 5863 5861 5859 5858 5858 5858 5856 5855 5853 5853 5852 5852 5852 5852 5853 5852
5888 5887 5885 5885 5884 5884 5882 5882 5881 5880 5879 5879 5878 5877 5875 5874 5872 5871 5869 5867 5865 5864 5862 5861 5860 5859 5858 5856 5855 5853 5852 5852 5851 5850 5848 5847 5847 5846 5846 5845 5844 5844 5845
5887 5885 5884 5883 5883 5881 5880 5879 5878 5877 5876 5875 5874 5872 5871 5869 5867 5866 5864 5862 5860 5859 5857 5855 5854 5852 5851 5850 5848 5847 5845 5845 5844 5843 5842 5841 5840 5840 5839 5838 5837 5837 5837
5884 5883 5882 5881 5880 5879 5877 5876 5875 5874 5872 5870 5869 5868 5866 5864 5862 5860 5859 5857 5855 5854 5852 5850 5848 5847 5845 5844 5842 5841 5840 5838 5837 5836 5835 5835 5834 5833 5832 5831 5830 5830 5829
5882 5880 5879 5878 5878 5876 5875 5873 5872 5870 5868 5866 5864 5863 5860 5858 5856 5855 5853 5852 5850 5848 5847 5845 5843 5841 5839 5838 5836 5835 5833 5832 5831 5829 5828 5827 5826 5825 5824 5823 5823 5822 5822
5878 5877 5876 5875 5874 5873 5872 5870 5868 5866 5864 5862 5860 5858 5855 5852 5850 5848 5847 5845 5844 5842 5840 5838 5836 5834 5832 5831 5829 5828 5826 5825 5824 5822 5821 5819 5817 5816 5815 5815 5814 5814 5814
5874 5873 5872 5871 5869 5868 5867 5866 5864 5862 5860 5857 5855 5852 5850 5847 5845 5842 5840 5839 5837 5835 5833 5831 5829 5827 5825 5823 5821 5820 5819 5817 5816 5815 5813 5811 5809 5807 5806 5805 5804 5804 5804
5871 5868 5867 5867 5864 5864 5863 5862 5860 5857 5854 5851 5849 5846 5844 5841 5839 5836 5833 5831 5830 5828 5826 5824 5822 5819 5817 5814 5813 5811 5810 5808 5806 5804 5803 5801 5800 5797 5795 5794 5792 5792 5792
5866 5864 5863 5861 5859 5858 5857 5856 5855 5852 5848 5845 5842 5840 5838 5835 5833 5831 5828 5825 5823 5821 5818 5815 5813 5810 5808 5805 5803 5801 5799 5796 5794 5792 5790 5788 5786 5785 5783 5782 5780 5779 5779
5862 5860 5857 5855 5853 5852 5851 5849 5848 5846 5843 5840 5837 5834 5831 5828 5825 5822 5820 5817 5814 5811 5808 5805 5802 5799 5796 5793 5791 5788 5786 5783 5781 5778 5776 5773 5771 5770 5769 5767 5767 5766 5765
5860 5858 5855 5853 5851 5851 5848 5845 5842 5839 5837 5835 5831 5828 5824 5821 5818 5814 5811 5808 5804 5800 5796 5793 5789 5786 5783 5780 5778 5776 5773 5771 5768 5765 5762 5759 5757 5754 5752 5750 5749 5749 5749
5858 5856 5853 5850 5849 5847 5844 5841 5837 5834 5832 5829 5825 5821 5817 5813 5809 5806 5802 5799 5794 5790 5787 5783 5779 5775 5771 5768 5765 5763 5760 5757 5754 5750 5747 5744 5741 5738 5735 5732 5730 5730 5730
5854 5852 5849 5846 5844 5842 5838 5835 5831 5828 5825 5822 5818 5814 5810 5806 5802 5797 5793 5789 5784 5780 5776 5772 5767 5763 5758 5754 5751 5748 5745 5742 5738 5734 5730 5727 5723 5719 5715 5712 5711 5709 5709
5850 5847 5844 5841 5838 5835 5831 5828 5824 5821 5817 5813 5809 5805 5801 5797 5792 5788 5784 5779 5774 5769 5765 5760 5756 5750 5744 5738 5733 5731 5729 5725 5721 5716 5711 5706 5702 5697 5693 5689 5687 5686 5687
5846 5843 5839 5836 5832 5828 5824 5821 5817 5812 5808 5804 5800 5795 5791 5787 5782 5778 5773 5768 5762 5757 5751 5746 5741 5734 5727 5720 5714 5709 5708 5709 5704 5697 5690 5683 5678 5673 5668 5665 5663 5663 5664
5842 5838 5834 5830 5826 5822 5818 5814 5809 5805 5800 5796 5791 5786 5781 5776 5771 5766 5761 5755 5749 5742 5735 5729 5723 5716 5709 5701 5693 5687 5683 5682 5681 5679 5669 5662 5655 5649 5644 5641 5639 5639 5641
5837 5833 5828 5824 5820 5815 5811 5806 5802 5797 5792 5787 5781 5776 5770 5764 5758 5752 5746 5740 5733 5726 5719 5711 5704 5696 5689 5681 5674 5668 5662 5659 5657 5656 5650 5642 5635 5628 5623 5620 5619 5620 5621
5831 5826 5821 5816 5812 5807 5803 5798 5793 5788 5783 5777 5772 5765 5759 5752 5745 5738 5732 5724 5717 5710 5702 5695 5687 5680 5672 5665 5658 5652 5647 5643 5639 5636 5632 5626 5620 5613 5608 5606 5604 5605 5606
5824 5820 5814 5809 5805 5800 5795 5790 5784 5779 5773 5767 5760 5753 5747 5740 5733 5725 5718 5710 5703 5696 5689 5682 5674 5667 5660 5652 5645 5639 5634 5630 5626 5622 5617 5612 5607 5603 5598 5595 5594 5594 5594